OV1-19

导读

OV1-19是美国于1969年3月18日8点发射的OV1系列科学卫星,国际标识1969 025C。它搭载于阿特拉斯运载火箭进入太空,核心任务为开展空间辐射环境研究,属于美国早期轨道飞行器计划的组成部分,为人类理解近地空间辐射分布、积累太空环境探测数据提供了早期实验支撑,推动了航天辐射防护领域的基础研究发展。

Basic Information
目录编号:
3825
目录名称:
OV1-19
国际标识:
1969-025C
轨道中心:
EARTH
卫星名称:
OV1-19
卫星全名:
--
卫星状态:
在轨 (已飞行20937 天)
发射日期:
1969-03-18 UTC
国别 :
美国 (US)
星等 :
--
Orbit Information
数据来源 国际轨道数据
星历时间: 2026-07-14T12:26:36+0800
6小时前
查看轨道信息
半长轴: 9361.413km
偏心率: 0.2675825
轨道倾角: 104.763°
近地点辐角 16.698°
升交点赤经 307.756°
平近点角 350.713°
近地点: 478.325km
远地点: 5488.227km
周期: 150.235分钟
每日圈数: 9.584968
Detailed Information
使用方式:
暂无
2D Orbit Map
3D Orbit Map
Orbit Altitude Analysis Chart
Orbit Inclination Analysis Chart
Orbit Comprehensive Analysis Chart
View Comprehensive Chart